Wind_Speed
11 11 11 13 14 14 14 13 13 12 12 12 12 11 10 10 9 8 6 5 3 2 1 1 2 2 3 4 5 6 6 7 7 7 8 8 9 9 8 8 8 9 9
9 10 10 10 11 12 12 12 11 11 11 11 11 11 10 10 9 8 7 6 5 4 3 1 1 2 3 4 5 6 6 7 8 8 8 8 9 9 10 10 10 10 10
7 8 8 9 9 9 10 10 10 10 10 10 10 10 9 9 8 8 7 7 6 4 3 2 1 1 2 4 5 6 7 8 8 8 8 8 8 9 10 11 11 11 12
8 7 7 7 8 8 8 9 9 9 9 9 9 8 8 8 8 8 7 7 6 6 4 3 2 2 3 4 4 5 6 7 8 9 9 9 9 9 10 11 11 12 12
9 8 7 6 6 6 6 7 8 8 8 8 7 7 7 7 7 7 7 6 6 6 6 5 3 2 3 4 4 5 5 6 7 8 9 9 10 10 10 11 11 12 12
9 9 8 5 5 6 5 5 6 6 6 7 7 7 6 6 7 6 6 6 6 6 6 6 5 4 4 4 5 5 6 7 8 9 10 11 11 11 11 11 11 12 13
11 10 8 6 5 5 6 5 5 5 6 6 6 6 6 5 6 5 5 5 6 6 6 6 6 6 5 5 6 6 6 7 8 9 9 11 12 12 12 12 12 12 13
12 11 10 8 7 7 6 5 5 5 5 6 6 6 6 5 5 5 5 6 6 6 6 7 7 7 7 7 7 7 7 7 8 9 10 10 10 11 12 12 12 12 13
14 13 11 10 9 8 8 7 7 6 6 6 6 6 6 6 6 6 6 7 7 7 7 8 8 8 9 8 8 8 8 8 8 9 10 10 10 10 11 12 12 12 13
14 14 13 11 10 9 9 10 10 9 8 8 8 8 8 7 7 6 7 7 7 7 8 8 9 9 9 9 9 9 8 8 9 10 11 11 11 12 12 12 12 13 14
17 17 15 14 12 11 11 12 12 11 10 10 10 10 10 9 9 8 9 9 9 9 9 9 10 10 10 10 9 9 9 10 10 11 12 12 12 13 13 14 14 15 15
19 16 16 17 16 14 14 14 13 13 13 12 12 13 13 12 12 11 11 10 10 10 11 11 12 12 13 12 12 11 11 12 13 13 13 13 13 14 14 15 16 16 17
22 20 19 19 19 19 18 17 16 16 15 15 15 15 15 14 14 14 14 14 13 13 12 13 13 14 14 14 14 14 14 14 14 14 14 14 15 16 16 17 17 18 19
27 25 23 22 22 21 19 20 20 20 19 19 18 18 17 17 16 17 17 17 16 15 15 15 15 16 16 16 17 17 16 16 16 16 16 16 17 17 18 19 20 20 21
28 28 25 24 24 22 22 21 22 21 22 22 21 20 20 20 18 19 20 19 18 17 17 17 18 18 18 18 18 19 18 19 19 18 18 18 19 20 20 21 21 22 22
29 28 28 27 26 25 24 23 23 23 25 25 23 23 22 22 21 22 22 22 21 21 21 20 20 20 20 20 20 20 20 21 21 20 20 20 21 22 22 23 23 24 24
30 31 30 29 28 27 26 26 24 24 26 27 26 26 25 24 24 25 24 24 24 24 24 23 23 22 22 22 22 23 22 22 22 22 22 22 22 23 24 24 24 25 25
33 33 32 31 31 30 29 29 28 27 27 28 28 27 27 27 27 26 26 26 25 25 25 26 25 25 25 26 26 24 24 25 24 24 24 23 24 25 25 25 26 26 26
36 36 34 33 33 33 32 33 33 32 30 30 30 29 29 30 29 29 29 29 28 28 28 28 28 27 27 28 28 27 27 26 26 25 24 25 25 26 26 26 26 27 27
37 36 36 36 36 36 36 35 35 34 33 33 32 31 31 31 32 32 31 31 31 31 31 30 30 30 30 30 29 28 28 27 26 26 26 26 27 27 27 27 28 28 28
37 37 37 38 37 37 38 38 37 37 37 35 33 34 34 34 35 35 34 34 34 34 33 33 32 33 33 32 31 30 29 28 28 28 28 29 29 28 28 29 29 29 29
40 41 39 38 39 40 40 39 38 39 39 38 36 36 36 36 36 36 36 35 35 35 35 34 33 34 34 34 32 30 29 30 29 29 29 30 30 30 30 30 30 30 31
42 40 39 39 39 40 41 41 40 40 39 37 37 37 37 37 36 36 36 37 36 36 36 35 34 33 33 32 31 29 29 29 30 30 31 31 31 31 31 32 32 32 32
42 40 40 40 39 39 39 39 38 38 37 36 37 36 36 36 36 35 36 36 36 36 35 36 35 35 33 32 31 30 30 30 30 31 31 32 31 32 33 33 33 34 34
42 42 42 41 41 40 39 38 38 38 37 37 37 37 37 37 37 37 37 37 35 35 35 35 35 34 34 34 33 32 32 32 33 33 32 33 33 34 33 34 34 35 35
42 42 41 41 40 39 38 38 39 39 38 38 38 38 38 37 37 37 37 36 36 36 35 34 34 34 35 34 34 34 34 35 35 34 34 34 34 34 35 34 34 34 34
Wind_Direction
23 28 32 38 41 42 43 46 50 50 51 52 53 53 53 54 56 58 63 61 56 71 127 197 221 237 234 234 238 237 238 233 235 233 232 236 238 236 243 253 259 262 262
13 20 25 32 39 41 42 44 46 46 48 50 49 48 47 48 46 45 46 46 44 49 51 29 288 251 246 246 247 245 240 238 238 239 237 240 241 243 248 253 258 264 268
350 356 15 22 32 38 39 40 41 41 42 45 45 45 45 44 42 41 41 43 42 38 28 20 1 305 265 256 254 246 243 241 242 244 244 245 248 253 256 258 261 264 267
332 337 358 8 15 26 30 32 33 37 37 37 39 38 38 38 37 35 34 33 30 27 20 359 329 299 285 269 263 258 251 247 245 243 248 249 252 256 259 262 263 264 266
317 316 324 347 359 8 19 23 25 28 29 29 31 31 31 31 30 27 25 24 19 15 18 11 353 324 308 290 276 267 261 255 250 248 251 254 259 263 265 267 268 267 268
298 300 296 308 337 346 354 6 12 14 17 22 26 26 24 22 19 15 14 15 10 4 4 0 351 332 315 304 294 284 272 263 259 257 258 260 264 264 267 268 267 267 270
287 292 293 293 305 314 330 340 355 2 5 7 12 14 9 4 5 2 359 0 357 352 347 348 337 324 318 311 299 291 279 270 265 266 268 267 268 266 266 266 266 271 273
275 282 287 283 281 294 298 306 324 334 340 344 347 353 352 347 346 348 343 338 336 334 334 335 335 329 319 310 301 294 287 279 276 274 275 272 269 267 266 266 268 273 276
269 275 283 279 276 282 287 288 294 301 306 314 321 328 332 327 323 328 334 329 324 317 321 326 326 325 325 318 312 299 287 280 281 282 281 279 280 277 276 273 273 276 279
270 277 280 277 266 271 281 278 280 288 292 295 301 307 312 311 310 308 315 322 321 314 313 318 320 319 321 317 313 304 292 288 284 284 290 289 284 282 280 278 278 281 283
271 273 270 271 271 270 272 278 275 282 286 287 291 298 298 296 298 302 302 302 306 306 303 307 310 312 314 313 309 305 297 295 292 289 292 293 290 284 283 283 282 283 283
275 269 272 276 267 265 267 269 271 275 280 282 285 290 291 291 289 292 294 296 296 296 296 297 299 301 303 302 299 297 298 296 294 294 293 292 293 291 288 287 285 285 284
274 271 272 274 272 269 267 268 272 273 275 278 280 283 282 283 285 288 289 288 287 288 288 290 292 295 296 295 294 297 295 296 296 295 296 293 292 293 291 290 290 289 287
279 277 274 269 270 268 269 268 274 278 277 276 276 279 279 283 282 282 284 287 285 286 286 287 289 289 291 292 292 292 293 293 292 292 291 291 292 293 292 289 288 288 287
273 274 273 271 272 269 268 269 272 274 274 273 273 276 278 279 280 280 279 280 282 282 285 287 288 289 289 290 289 289 289 289 290 290 289 289 290 292 292 290 288 288 287
270 270 272 270 269 268 269 270 268 269 271 272 271 273 273 276 280 281 279 279 281 279 281 282 283 284 286 288 287 285 285 288 291 292 292 291 289 291 291 289 288 288 288
268 269 273 269 269 275 276 274 271 272 270 269 269 272 272 274 275 276 277 276 278 278 279 277 278 280 282 284 284 283 283 286 288 288 290 293 291 292 291 288 288 288 288
265 268 271 271 273 275 275 275 272 270 271 270 272 274 276 277 277 277 278 276 277 277 276 276 277 278 278 279 281 282 283 283 285 286 286 288 288 289 288 286 287 287 286
264 267 270 272 271 271 273 273 273 273 273 272 273 273 273 274 275 275 275 275 275 277 276 276 277 277 279 280 281 281 283 284 286 287 285 287 288 288 287 285 286 287 285
263 265 268 270 270 270 271 272 272 273 271 272 271 271 273 273 274 273 274 274 274 275 275 276 276 275 276 277 279 280 283 283 284 284 284 287 288 287 286 285 284 285 285
264 266 268 267 268 269 271 271 272 272 272 270 268 269 270 271 272 273 274 273 273 273 274 274 274 274 274 273 274 277 278 279 280 282 282 284 285 284 283 283 284 284 284
269 268 267 267 268 271 271 271 271 270 270 270 269 270 270 270 271 271 273 275 275 274 273 273 274 276 278 278 278 277 279 280 280 280 279 280 282 282 281 282 283 283 283
268 267 268 269 271 271 270 270 269 268 268 268 269 270 270 271 271 272 272 274 275 275 274 272 273 275 277 278 278 278 280 281 281 282 280 279 279 280 279 279 281 282 283
267 268 268 270 270 270 270 268 269 269 269 269 269 271 271 274 274 274 273 273 273 274 274 273 271 272 273 275 278 279 282 282 283 283 281 280 280 279 279 279 279 281 281
269 269 269 269 270 270 269 268 268 267 269 270 272 273 273 274 275 273 272 273 274 273 273 275 273 271 273 275 277 278 279 280 280 281 281 281 280 279 279 279 279 280 280
269 269 269 270 269 269 270 270 271 272 271 272 272 272 273 274 274 273 273 273 273 274 275 277 277 275 274 276 276 276 277 278 279 278 279 279 280 280 280 279 279 279 279
Height
5912 5910 5908 5906 5905 5903 5901 5900 5898 5897 5895 5894 5892 5891 5890 5889 5888 5887 5887 5886 5886 5885 5885 5885 5885 5885 5885 5885 5885 5885 5885 5886 5886 5886 5887 5887 5887 5887 5887 5887 5887 5887 5886
5913 5911 5909 5908 5906 5904 5903 5901 5900 5898 5897 5895 5894 5892 5891 5890 5889 5888 5887 5887 5886 5885 5885 5885 5884 5884 5884 5884 5884 5884 5884 5884 5884 5884 5885 5885 5886 5886 5886 5885 5885 5885 5885
5913 5911 5910 5909 5907 5906 5904 5903 5901 5900 5898 5897 5895 5894 5893 5891 5890 5889 5888 5887 5886 5885 5885 5884 5884 5883 5883 5883 5883 5882 5882 5882 5883 5883 5883 5883 5883 5883 5884 5883 5883 5882 5882
5912 5911 5910 5909 5907 5906 5905 5904 5902 5901 5899 5898 5896 5895 5893 5892 5891 5890 5889 5887 5886 5885 5884 5884 5883 5883 5882 5882 5881 5881 5881 5880 5880 5881 5881 5881 5881 5881 5881 5881 5880 5880 5879
5910 5910 5909 5908 5907 5906 5905 5904 5902 5901 5899 5898 5897 5895 5894 5893 5891 5890 5889 5888 5887 5885 5884 5883 5882 5882 5881 5880 5880 5880 5879 5879 5879 5879 5879 5879 5879 5879 5879 5878 5878 5877 5876
5908 5908 5907 5906 5905 5905 5904 5903 5902 5900 5899 5898 5896 5895 5894 5893 5891 5890 5889 5888 5886 5885 5884 5883 5882 5881 5880 5879 5878 5878 5877 5877 5877 5877 5876 5876 5876 5876 5875 5875 5874 5874 5873
5906 5906 5905 5904 5903 5903 5903 5902 5901 5899 5898 5897 5896 5894 5893 5892 5891 5889 5888 5887 5886 5884 5883 5882 5881 5880 5879 5878 5877 5876 5875 5875 5875 5874 5874 5873 5873 5872 5872 5871 5871 5870 5869
5903 5903 5902 5901 5901 5901 5901 5900 5899 5898 5897 5896 5895 5893 5892 5891 5890 5888 5887 5886 5884 5883 5882 5881 5879 5878 5877 5876 5875 5874 5873 5872 5872 5871 5871 5870 5869 5869 5868 5868 5867 5866 5866
5899 5899 5898 5899 5898 5898 5898 5898 5897 5896 5895 5894 5893 5891 5890 5889 5888 5886 5885 5884 5882 5881 5880 5879 5877 5876 5875 5874 5873 5871 5870 5870 5869 5869 5868 5867 5866 5866 5865 5864 5864 5863 5862
5895 5895 5895 5895 5895 5895 5894 5895 5894 5894 5893 5891 5890 5889 5888 5887 5886 5885 5883 5882 5880 5879 5878 5876 5875 5874 5873 5871 5870 5868 5867 5867 5866 5866 5865 5864 5863 5863 5862 5861 5860 5859 5858
5889 5890 5891 5891 5891 5891 5891 5891 5890 5890 5889 5888 5887 5886 5885 5884 5883 5882 5881 5879 5878 5877 5875 5874 5873 5871 5870 5868 5867 5866 5864 5864 5863 5862 5861 5860 5859 5858 5858 5857 5856 5855 5854
5883 5884 5886 5886 5886 5886 5887 5886 5886 5885 5885 5884 5883 5883 5882 5881 5880 5879 5877 5876 5875 5874 5872 5871 5869 5868 5866 5865 5864 5862 5861 5860 5859 5858 5857 5856 5855 5854 5853 5853 5852 5851 5850
5879 5879 5881 5881 5881 5881 5881 5881 5881 5881 5880 5880 5879 5878 5878 5877 5876 5875 5873 5872 5871 5870 5868 5867 5865 5864 5862 5861 5859 5858 5857 5856 5855 5853 5852 5851 5851 5850 5849 5848 5847 5846 5845
5872 5873 5873 5874 5874 5875 5874 5875 5875 5874 5874 5874 5873 5873 5873 5872 5871 5870 5869 5868 5866 5865 5863 5862 5861 5859 5858 5856 5855 5854 5852 5851 5850 5849 5848 5847 5846 5845 5844 5843 5841 5840 5839
5867 5867 5867 5867 5868 5868 5868 5868 5868 5868 5868 5867 5867 5867 5866 5866 5864 5864 5863 5863 5862 5860 5859 5857 5856 5855 5853 5851 5850 5849 5848 5846 5845 5843 5842 5841 5840 5839 5838 5837 5835 5834 5833
5859 5860 5860 5860 5860 5861 5860 5859 5859 5860 5861 5860 5859 5860 5859 5859 5858 5858 5857 5856 5855 5854 5853 5852 5850 5849 5847 5846 5844 5843 5842 5840 5839 5838 5836 5835 5834 5833 5832 5830 5829 5827 5826
5852 5853 5853 5852 5852 5853 5853 5853 5852 5852 5852 5852 5852 5851 5851 5851 5850 5850 5849 5848 5848 5847 5846 5845 5843 5842 5841 5839 5837 5836 5835 5834 5832 5831 5830 5828 5827 5826 5824 5823 5821 5820 5818
5845 5845 5845 5846 5845 5845 5846 5846 5845 5844 5844 5844 5844 5843 5843 5843 5842 5841 5841 5840 5839 5839 5838 5837 5836 5834 5833 5832 5829 5827 5827 5826 5825 5824 5823 5821 5820 5818 5816 5815 5813 5812 5810
5837 5837 5837 5838 5838 5838 5838 5838 5837 5837 5836 5836 5836 5836 5835 5835 5834 5834 5833 5832 5831 5831 5830 5829 5828 5827 5826 5824 5822 5819 5819 5818 5817 5816 5815 5813 5812 5810 5808 5807 5805 5804 5802
5827 5828 5828 5828 5828 5829 5828 5828 5828 5827 5827 5827 5826 5826 5826 5825 5825 5825 5824 5823 5823 5822 5821 5820 5819 5818 5817 5815 5813 5811 5811 5810 5809 5808 5806 5805 5803 5802 5800 5798 5797 5795 5793
5817 5818 5818 5818 5818 5818 5819 5818 5818 5817 5817 5816 5816 5816 5816 5816 5816 5815 5815 5814 5813 5813 5812 5811 5810 5808 5807 5805 5804 5803 5802 5801 5800 5799 5798 5796 5795 5793 5791 5790 5788 5786 5784
5807 5807 5806 5806 5807 5808 5808 5808 5807 5807 5806 5805 5805 5805 5805 5805 5805 5804 5804 5803 5803 5803 5802 5800 5800 5799 5797 5795 5793 5793 5792 5791 5791 5790 5789 5787 5785 5784 5782 5781 5779 5777 5776
5795 5795 5795 5796 5795 5795 5795 5795 5796 5795 5794 5794 5794 5794 5794 5793 5792 5792 5792 5793 5792 5792 5790 5789 5789 5788 5787 5785 5784 5783 5782 5781 5781 5780 5778 5777 5775 5774 5772 5771 5769 5768 5766
5781 5782 5783 5783 5783 5782 5782 5783 5783 5783 5782 5783 5783 5783 5782 5780 5780 5781 5781 5781 5781 5780 5779 5778 5778 5777 5776 5776 5774 5773 5773 5772 5771 5770 5768 5766 5765 5763 5762 5761 5759 5757 5756
5771 5771 5771 5771 5771 5771 5771 5771 5771 5771 5772 5773 5772 5772 5772 5771 5770 5770 5770 5770 5770 5769 5769 5768 5767 5766 5766 5765 5765 5764 5763 5762 5760 5759 5758 5757 5755 5753 5751 5750 5748 5747 5745
5759 5758 5758 5759 5759 5759 5759 5759 5760 5760 5761 5761 5762 5761 5761 5760 5759 5758 5758 5758 5758 5757 5757 5757 5756 5755 5755 5755 5754 5753 5752 5750 5749 5748 5746 5745 5743 5741 5740 5739 5737 5736 5734